TimeCDT,TemperatureF,Dew PointF,Humidity,Sea Level PressureIn,VisibilityMPH,Wind Direction,Wind SpeedMPH,Gust SpeedMPH,PrecipitationIn,Events,Conditions,WindDirDegrees,DateUTC
12:54 AM,55.9,53.1,90,29.83,7.0,NNW,5.8,-,0.04,Rain,Light Rain,340,2013-05-18 05:54:00
1:54 AM,55.9,53.1,90,29.82,6.0,North,6.9,-,0.07,Rain,Light Rain,360,2013-05-18 06:54:00
2:34 AM,55.4,53.6,94,29.81,10.0,ENE,3.5,-,0.01,Thunderstorm,Thunderstorm,70,2013-05-18 07:34:00
2:50 AM,55.4,53.6,94,29.81,2.5,SW,5.8,-,0.09,Rain-Thunderstorm,Heavy Rain,220,2013-05-18 07:50:00
2:54 AM,55.9,54.0,93,29.81,2.0,Calm,Calm,-,0.14,Rain-Thunderstorm,Heavy Rain,0,2013-05-18 07:54:00
3:05 AM,55.4,53.6,94,29.81,2.0,Calm,Calm,-,0.06,Rain,Heavy Rain,0,2013-05-18 08:05:00
3:14 AM,55.4,53.6,94,29.81,2.5,Calm,Calm,-,0.08,Rain,Rain,0,2013-05-18 08:14:00
3:52 AM,55.4,55.4,100,29.78,4.0,NNE,5.8,-,0.23,Rain,Light Rain,30,2013-05-18 08:52:00
3:54 AM,55.9,54.0,93,29.78,4.0,NNE,5.8,-,0.23,Rain,Light Rain,20,2013-05-18 08:54:00
4:54 AM,55.9,54.0,93,29.77,4.0,Calm,Calm,-,0.00,,Mostly Cloudy,0,2013-05-18 09:54:00
5:03 AM,55.4,53.6,94,29.77,3.0,NW,4.6,-,N/A,,Overcast,320,2013-05-18 10:03:00
5:12 AM,55.4,53.6,94,29.77,3.0,NNW,3.5,-,N/A,,Overcast,330,2013-05-18 10:12:00
5:26 AM,55.4,55.4,100,29.77,3.0,NNW,3.5,-,N/A,,Overcast,330,2013-05-18 10:26:00
5:35 AM,55.4,55.4,100,29.78,2.5,NW,4.6,-,N/A,,Overcast,320,2013-05-18 10:35:00
5:43 AM,57.2,55.4,94,29.78,3.0,NNW,5.8,-,N/A,,Overcast,340,2013-05-18 10:43:00
5:54 AM,55.9,55.0,97,29.78,3.0,WNW,3.5,-,N/A,,Overcast,290,2013-05-18 10:54:00
6:13 AM,55.4,53.6,94,29.80,2.5,WNW,5.8,-,N/A,,Overcast,300,2013-05-18 11:13:00
6:25 AM,55.4,53.6,94,29.80,1.0,WNW,6.9,-,N/A,,Overcast,300,2013-05-18 11:25:00
6:33 AM,55.4,55.4,100,29.81,0.5,WNW,5.8,-,N/A,Fog,Fog,300,2013-05-18 11:33:00
6:47 AM,55.4,55.4,100,29.81,0.2,NNW,5.8,-,N/A,Fog,Fog,330,2013-05-18 11:47:00
6:54 AM,55.9,55.0,97,29.81,0.5,NW,5.8,-,N/A,Fog,Fog,320,2013-05-18 11:54:00
7:15 AM,55.4,53.6,94,29.81,1.8,NW,8.1,-,N/A,,Overcast,310,2013-05-18 12:15:00
7:32 AM,53.6,53.6,100,29.82,0.8,NW,6.9,-,0.01,Rain,Light Rain,310,2013-05-18 12:32:00
7:54 AM,55.0,54.0,96,29.82,0.2,NW,8.1,-,0.01,Fog,Fog,320,2013-05-18 12:54:00
8:06 AM,55.4,53.6,94,29.82,0.5,NW,8.1,-,N/A,Fog,Fog,310,2013-05-18 13:06:00
8:41 AM,55.4,55.4,100,29.83,1.8,NNW,4.6,-,N/A,,Overcast,330,2013-05-18 13:41:00
8:49 AM,55.4,55.4,100,29.83,2.5,NW,5.8,-,N/A,,Overcast,320,2013-05-18 13:49:00
8:54 AM,55.9,55.0,97,29.83,2.5,NW,8.1,-,N/A,,Overcast,310,2013-05-18 13:54:00
9:06 AM,55.4,53.6,94,29.81,1.2,NNW,8.1,-,N/A,,Overcast,340,2013-05-18 14:06:00
9:19 AM,55.4,53.6,94,29.82,0.8,NNW,9.2,-,N/A,,Overcast,340,2013-05-18 14:19:00
9:54 AM,55.9,55.0,97,29.82,0.2,NNW,6.9,-,N/A,Fog,Fog,340,2013-05-18 14:54:00
10:54 AM,55.9,55.9,100,29.82,0.2,NW,9.2,-,N/A,Fog,Fog,320,2013-05-18 15:54:00
11:01 AM,57.2,55.4,94,29.82,0.8,NNW,10.4,-,N/A,,Overcast,330,2013-05-18 16:01:00
11:16 AM,57.2,55.4,94,29.82,0.5,NNW,8.1,-,N/A,Fog,Fog,340,2013-05-18 16:16:00
11:39 AM,57.2,55.4,94,29.83,1.2,North,5.8,-,N/A,,Overcast,10,2013-05-18 16:39:00
11:54 AM,57.0,55.9,96,29.84,2.5,NNE,4.6,-,N/A,,Overcast,20,2013-05-18 16:54:00
12:23 PM,57.2,55.4,94,29.83,3.0,NNE,6.9,-,N/A,,Overcast,20,2013-05-18 17:23:00
12:54 PM,57.9,55.9,93,29.84,3.0,NNE,6.9,-,N/A,,Overcast,20,2013-05-18 17:54:00
12:58 PM,57.2,55.4,94,29.83,1.8,NNE,5.8,-,N/A,,Overcast,30,2013-05-18 17:58:00
1:06 PM,57.2,57.2,100,29.83,0.5,NE,5.8,-,N/A,Fog,Fog,40,2013-05-18 18:06:00
1:54 PM,57.2,57.2,100,29.83,0.5,North,3.5,-,N/A,Fog,Fog,360,2013-05-18 18:54:00
2:01 PM,59.0,57.2,94,29.83,1.5,NNW,5.8,-,N/A,,Overcast,340,2013-05-18 19:01:00
2:28 PM,59.0,57.2,94,29.82,2.0,North,4.6,-,N/A,,Overcast,350,2013-05-18 19:28:00
2:45 PM,59.0,57.2,94,29.82,3.0,North,3.5,-,N/A,,Overcast,350,2013-05-18 19:45:00
2:54 PM,60.1,57.0,90,29.83,5.0,North,4.6,-,N/A,,Overcast,360,2013-05-18 19:54:00
3:43 PM,60.8,57.2,88,29.83,9.0,North,3.5,-,N/A,,Overcast,10,2013-05-18 20:43:00
3:54 PM,62.1,57.0,84,29.84,9.0,North,3.5,-,N/A,,Overcast,10,2013-05-18 20:54:00
4:01 PM,62.6,57.2,82,29.83,10.0,North,4.6,-,N/A,,Overcast,350,2013-05-18 21:01:00
4:19 PM,60.8,57.2,88,29.83,10.0,Calm,Calm,-,N/A,,Overcast,0,2013-05-18 21:19:00
4:54 PM,62.1,57.0,84,29.84,10.0,North,6.9,-,N/A,,Overcast,350,2013-05-18 21:54:00
5:54 PM,63.0,57.0,81,29.83,10.0,NE,6.9,-,N/A,,Overcast,40,2013-05-18 22:54:00
6:12 PM,64.4,57.2,77,29.82,10.0,NNE,6.9,-,N/A,,Overcast,20,2013-05-18 23:12:00
6:54 PM,63.0,57.9,84,29.83,10.0,NNE,9.2,-,N/A,,Overcast,30,2013-05-18 23:54:00
7:54 PM,62.1,57.0,84,29.83,10.0,NE,9.2,-,N/A,,Overcast,40,2013-05-19 00:54:00
8:14 PM,62.6,57.2,82,29.82,10.0,NE,10.4,-,N/A,,Overcast,40,2013-05-19 01:14:00
8:54 PM,60.1,55.9,86,29.83,10.0,NE,11.5,-,N/A,,Overcast,50,2013-05-19 01:54:00
9:25 PM,59.0,55.4,88,29.83,10.0,ENE,11.5,-,N/A,,Overcast,60,2013-05-19 02:25:00
9:54 PM,57.9,55.0,90,29.87,10.0,ENE,13.8,-,N/A,,Mostly Cloudy,60,2013-05-19 02:54:00
10:19 PM,57.2,53.6,88,29.86,10.0,NE,10.4,-,N/A,,Overcast,50,2013-05-19 03:19:00
10:51 PM,57.2,53.6,88,29.86,10.0,ENE,12.7,-,N/A,,Overcast,60,2013-05-19 03:51:00
10:54 PM,57.0,54.0,89,29.87,10.0,NE,10.4,-,N/A,,Overcast,50,2013-05-19 03:54:00
11:39 PM,57.2,53.6,88,29.85,10.0,NE,12.7,-,N/A,,Overcast,40,2013-05-19 04:39:00
11:52 PM,55.4,53.6,94,29.85,10.0,NNE,13.8,19.6,N/A,,Overcast,30,2013-05-19 04:52:00
11:54 PM,55.9,53.1,90,29.87,10.0,NNE,12.7,19.6,N/A,,Overcast,30,2013-05-19 04:54:00